When you browse on this site, cookies collect data to enhance your experience and personalize the content and advertising you see.
Visit our Privacy Policy to learn more. By continuing to use the site, you agree to this use of cookies and data.
  • en France
  • Liste des pays
  • À 7 jours
  • Température de l'eau
  • Carte météo
  • Widgets météo
  • user-avatar
    Se connecter

    Météo par heure à Bovec

    Ce jour, 30 Mai, Samedi

    Heure Température Précipitation Vent Pression Humidité
    00:00 +7°C° 0 mm 1 m/s 694 mmHg 88%
    01:00 +7°C° 0 mm 1 m/s 694 mmHg 89%
    02:00 +7°C° 0 mm 1 m/s 694 mmHg 89%
    03:00 +6°C° 0 mm 1 m/s 693 mmHg 90%
    04:00 +6°C° 0 mm 1 m/s 693 mmHg 90%
    05:00 +8°C° 0 mm 1 m/s 693 mmHg 86%
    06:00 +9°C° 0 mm 1 m/s 693 mmHg 82%
    07:00 +11°C° 0 mm 1 m/s 694 mmHg 78%
    08:00 +13°C° 0.1 mm 1 m/s 693 mmHg 71%
    09:00 +14°C° 0.1 mm 1 m/s 693 mmHg 63%
    10:00 +16°C° 0.1 mm 1 m/s 693 mmHg 56%
    11:00 +16°C° 0.4 mm 1 m/s 693 mmHg 58%
    12:00 +16°C° 0.4 mm 1 m/s 693 mmHg 59%
    13:00 +18°C° 0.4 mm 1 m/s 693 mmHg 61%
    14:00 +16°C° 0.5 mm 1 m/s 692 mmHg 65%
    15:00 +16°C° 0.5 mm 1 m/s 692 mmHg 68%
    16:00 +15°C° 0.5 mm 1 m/s 692 mmHg 71%
    17:00 +14°C° 0.5 mm 1 m/s 692 mmHg 77%
    18:00 +13°C° 0.5 mm 1 m/s 692 mmHg 84%
    19:00 +11°C° 0.5 mm 1 m/s 691 mmHg 90%
    20:00 +11°C° 0.5 mm 1 m/s 692 mmHg 92%
    21:00 +10°C° 0.5 mm 1 m/s 692 mmHg 93%
    22:00 +10°C° 0.5 mm 1 m/s 693 mmHg 95%
    23:00 +10°C° 1.1 mm 1 m/s 693 mmHg 95%

    Demain, 31 Mai, Dimanche

    Heure Température Précipitation Vent Pression Humidité
    00:00 +9°C° 1.1 mm 1 m/s 693 mmHg 96%
    01:00 +9°C° 1.1 mm 1 m/s 693 mmHg 96%
    02:00 +9°C° 0.5 mm 1 m/s 693 mmHg 96%
    03:00 +9°C° 0.5 mm 1 m/s 692 mmHg 95%
    04:00 +9°C° 0.5 mm 1 m/s 692 mmHg 95%
    05:00 +9°C° 0.1 mm 1 m/s 692 mmHg 93%
    06:00 +9°C° 0.1 mm 0 m/s 692 mmHg 92%
    07:00 +9°C° 0.1 mm 0 m/s 692 mmHg 90%
    08:00 +11°C° 0 mm 0 m/s 693 mmHg 80%
    09:00 +13°C° 0 mm 0 m/s 693 mmHg 71%
    10:00 +16°C° 0 mm 1 m/s 693 mmHg 62%
    11:00 +16°C° 0.2 mm 1 m/s 693 mmHg 59%
    12:00 +18°C° 0.2 mm 1 m/s 693 mmHg 57%
    13:00 +19°C° 0.2 mm 1 m/s 692 mmHg 55%
    14:00 +18°C° 0.2 mm 1 m/s 692 mmHg 57%
    15:00 +18°C° 0.2 mm 1 m/s 692 mmHg 60%
    16:00 +16°C° 0.2 mm 1 m/s 692 mmHg 63%
    17:00 +15°C° 0.2 mm 1 m/s 692 mmHg 69%
    18:00 +14°C° 0.2 mm 1 m/s 692 mmHg 75%
    19:00 +13°C° 0.2 mm 1 m/s 692 mmHg 81%
    20:00 +12°C° 0 mm 1 m/s 692 mmHg 82%
    21:00 +11°C° 0 mm 1 m/s 692 mmHg 83%
    22:00 +10°C° 0 mm 1 m/s 693 mmHg 84%
    23:00 +8°C° 0 mm 2 m/s 692 mmHg 84%

    Après-demain, 1 Juin, Lundi

    Heure Température Précipitation Vent Pression Humidité
    00:00 +8°C° 0 mm 2 m/s 692 mmHg 85%
    01:00 +7°C° 0 mm 2 m/s 692 mmHg 86%
    02:00 +7°C° 0 mm 2 m/s 692 mmHg 85%
    03:00 +6°C° 0 mm 2 m/s 692 mmHg 85%
    04:00 +6°C° 0 mm 2 m/s 692 mmHg 84%
    05:00 +9°C° 0 mm 1 m/s 692 mmHg 79%
    06:00 +11°C° 0 mm 1 m/s 692 mmHg 74%
    07:00 +13°C° 0 mm 1 m/s 693 mmHg 69%
    08:00 +15°C° 0 mm 1 m/s 693 mmHg 62%
    09:00 +18°C° 0 mm 1 m/s 693 mmHg 54%
    10:00 +20°C° 0 mm 1 m/s 694 mmHg 47%
    11:00 +20°C° 0 mm 1 m/s 694 mmHg 47%
    12:00 +21°C° 0 mm 1 m/s 694 mmHg 48%
    13:00 +20°C° 0 mm 2 m/s 693 mmHg 48%
    14:00 +21°C° 0.1 mm 1 m/s 693 mmHg 52%
    15:00 +20°C° 0.1 mm 1 m/s 693 mmHg 56%
    16:00 +20°C° 0.1 mm 1 m/s 693 mmHg 60%
    17:00 +18°C° 0.3 mm 1 m/s 693 mmHg 68%
    18:00 +16°C° 0.3 mm 1 m/s 692 mmHg 76%
    19:00 +14°C° 0.3 mm 0 m/s 692 mmHg 84%
    20:00 +13°C° 0.1 mm 0 m/s 693 mmHg 85%
    21:00 +12°C° 0.1 mm 1 m/s 693 mmHg 87%
    22:00 +11°C° 0.1 mm 1 m/s 693 mmHg 89%
    23:00 +11°C° 0.1 mm 1 m/s 693 mmHg 89%

    2 Juin, Mardi

    Heure Température Précipitation Vent Pression Humidité
    00:00 +11°C° 0.1 mm 1 m/s 693 mmHg 90%
    01:00 +9°C° 0.1 mm 0 m/s 692 mmHg 90%
    02:00 +10°C° 0 mm 1 m/s 692 mmHg 91%
    03:00 +10°C° 0 mm 1 m/s 692 mmHg 91%
    04:00 +9°C° 0 mm 1 m/s 692 mmHg 92%
    05:00 +10°C° 0 mm 1 m/s 692 mmHg 89%
    06:00 +12°C° 0 mm 1 m/s 692 mmHg 86%
    07:00 +12°C° 0 mm 0 m/s 692 mmHg 83%
    08:00 +14°C° 0 mm 1 m/s 692 mmHg 75%
    09:00 +16°C° 0 mm 1 m/s 693 mmHg 66%
    10:00 +19°C° 0 mm 1 m/s 693 mmHg 58%
    11:00 +19°C° 0.2 mm 1 m/s 692 mmHg 59%
    12:00 +20°C° 0.2 mm 1 m/s 692 mmHg 59%
    13:00 +20°C° 0.2 mm 1 m/s 692 mmHg 59%
    14:00 +20°C° 0.7 mm 1 m/s 691 mmHg 65%
    15:00 +19°C° 0.7 mm 1 m/s 691 mmHg 71%
    16:00 +18°C° 0.7 mm 1 m/s 690 mmHg 77%
    17:00 +16°C° 1 mm 1 m/s 690 mmHg 81%
    18:00 +15°C° 1 mm 1 m/s 690 mmHg 85%
    19:00 +13°C° 1 mm 0 m/s 690 mmHg 90%
    20:00 +13°C° 0.7 mm 1 m/s 690 mmHg 90%
    21:00 +11°C° 0.7 mm 1 m/s 690 mmHg 90%
    22:00 +10°C° 0.7 mm 1 m/s 690 mmHg 91%
    23:00 +10°C° 0.1 mm 1 m/s 689 mmHg 90%

    3 Juin, Mercredi

    Heure Température Précipitation Vent Pression Humidité
    00:00 +9°C° 0.1 mm 1 m/s 689 mmHg 90%
    01:00 +9°C° 0.1 mm 1 m/s 689 mmHg 90%
    02:00 +9°C° 0 mm 1 m/s 688 mmHg 90%
    03:00 +8°C° 0 mm 1 m/s 688 mmHg 90%
    04:00 +8°C° 0 mm 1 m/s 688 mmHg 90%
    05:00 +10°C° 0 mm 1 m/s 688 mmHg 87%
    06:00 +12°C° 0 mm 1 m/s 688 mmHg 83%
    07:00 +13°C° 0 mm 0 m/s 688 mmHg 80%
    08:00 +15°C° 0.1 mm 1 m/s 688 mmHg 73%
    09:00 +18°C° 0.1 mm 1 m/s 688 mmHg 66%
    10:00 +20°C° 0.1 mm 1 m/s 688 mmHg 59%
    11:00 +20°C° 0.5 mm 1 m/s 688 mmHg 62%
    12:00 +19°C° 0.5 mm 2 m/s 688 mmHg 65%
    13:00 +19°C° 0.5 mm 2 m/s 687 mmHg 68%
    14:00 +18°C° 0.8 mm 2 m/s 687 mmHg 73%
    15:00 +18°C° 0.8 mm 2 m/s 686 mmHg 77%
    16:00 +17°C° 0.8 mm 2 m/s 686 mmHg 82%
    17:00 +16°C° 0.5 mm 1 m/s 686 mmHg 85%
    18:00 +15°C° 0.5 mm 1 m/s 686 mmHg 89%
    19:00 +14°C° 0.5 mm 1 m/s 686 mmHg 92%
    20:00 +13°C° 0.1 mm 1 m/s 686 mmHg 93%
    21:00 +11°C° 0.1 mm 0 m/s 686 mmHg 93%
    22:00 +11°C° 0.1 mm 0 m/s 686 mmHg 94%
    23:00 +11°C° 0 mm 0 m/s 686 mmHg 94%

    4 Juin, Jeudi

    Heure Température Précipitation Vent Pression Humidité
    00:00 +11°C° 0 mm 1 m/s 686 mmHg 93%
    01:00 +11°C° 0 mm 1 m/s 686 mmHg 93%
    02:00 +11°C° 0 mm 1 m/s 685 mmHg 92%
    03:00 +11°C° 0 mm 1 m/s 685 mmHg 92%
    04:00 +10°C° 0 mm 1 m/s 685 mmHg 91%
    05:00 +11°C° 0 mm 1 m/s 685 mmHg 89%
    06:00 +12°C° 0 mm 1 m/s 685 mmHg 86%
    07:00 +13°C° 0 mm 1 m/s 685 mmHg 84%
    08:00 +15°C° 0 mm 1 m/s 685 mmHg 78%
    09:00 +16°C° 0 mm 1 m/s 685 mmHg 72%
    10:00 +17°C° 0 mm 2 m/s 686 mmHg 66%
    11:00 +18°C° 0 mm 2 m/s 686 mmHg 67%
    12:00 +18°C° 0 mm 2 m/s 685 mmHg 67%
    13:00 +18°C° 0 mm 2 m/s 685 mmHg 68%
    14:00 +18°C° 0.3 mm 2 m/s 685 mmHg 70%
    15:00 +18°C° 0.3 mm 2 m/s 685 mmHg 73%
    16:00 +18°C° 0.3 mm 3 m/s 685 mmHg 75%
    17:00 +17°C° 0.7 mm 2 m/s 685 mmHg 82%
    18:00 +15°C° 0.7 mm 2 m/s 684 mmHg 88%
    19:00 +14°C° 0.7 mm 2 m/s 684 mmHg 95%
    20:00 +14°C° 0.8 mm 1 m/s 685 mmHg 96%
    21:00 +14°C° 0.8 mm 1 m/s 685 mmHg 97%
    22:00 +14°C° 0.8 mm 1 m/s 685 mmHg 98%
    23:00 +14°C° 0.6 mm 1 m/s 685 mmHg 98%
    Voir plus